EW7082 Weather Reports


Display with metric or nautical units.
time (UTC)temp
F
wind
direction
speed
MPH
gust
MPH
rain 1hr
in
rain 24hr
in
rain mn
in
humidity
%
barometer
mb
20260504202205 66 281 7.0 9.0 0.00 0.00 0.00 66 1011.0
20260504200705 67 311 7.0 10.0 0.00 0.00 0.00 64 1011.1
20260504200204 67 284 6.0 9.0 0.00 0.00 0.00 64 1011.0
20260504195704 67 274 6.0 10.0 0.00 0.00 0.00 64 1011.0
20260504195206 67 265 6.0 10.0 0.00 0.00 0.00 64 1011.1
20260504194704 67 269 4.0 10.0 0.00 0.00 0.00 65 1011.0
20260504194204 67 307 5.0 9.0 0.00 0.00 0.00 65 1011.0
20260504193705 67 305 6.0 10.0 0.00 0.00 0.00 63 1011.0
20260504193204 68 296 9.0 12.0 0.00 0.00 0.00 60 1011.0
20260504192204 73 294 7.0 12.0 0.00 0.00 0.00 55 1010.9
20260504191203 74 276 6.0 9.0 0.00 0.00 0.00 53 1010.8
20260504190705 74 314 7.0 9.0 0.00 0.00 0.00 50 1010.8
20260504190204 74 274 3.0 8.0 0.00 0.00 0.00 52 1010.8
20260504185205 73 292 3.0 7.0 0.00 0.00 0.00 53 1010.8
20260504184704 74 303 5.0 9.0 0.00 0.00 0.00 52 1010.8
20260504183706 73 286 2.0 7.0 0.00 0.00 0.00 55 1010.9
20260504183204 73 311 2.0 5.0 0.00 0.00 0.00 56 1011.0
20260504182704 72 327 2.0 5.0 0.00 0.00 0.00 55 1011.0
20260504181205 71 277 3.0 8.0 0.00 0.00 0.00 54 1011.1
20260504180704 72 292 2.0 8.0 0.00 0.00 0.00 54 1011.1
20260504180205 72 306 3.0 7.0 0.00 0.00 0.00 58 1011.0
20260504175704 72 334 3.0 8.0 0.00 0.00 0.00 56 1011.0
20260504174704 71 323 3.0 8.0 0.00 0.00 0.00 58 1011.0
20260504173705 71 332 3.0 7.0 0.00 0.00 0.00 57 1011.0
20260504173204 71 322 3.0 5.0 0.00 0.00 0.00 57 1011.1
20260504172703 71 316 4.0 8.0 0.00 0.00 0.00 58 1011.1
20260504172205 71 294 4.0 8.0 0.00 0.00 0.00 57 1011.1
20260504171705 70 359 3.0 7.0 0.00 0.00 0.00 58 1011.1
20260504171204 70 310 5.0 10.0 0.00 0.00 0.00 56 1011.1
20260504170705 70 292 4.0 8.0 0.00 0.00 0.00 59 1011.2
20260504160204 69 287 4.0 8.0 0.00 0.00 0.00 58 1011.1
20260504150706 66 292 1.0 2.0 0.00 0.00 0.00 68 1010.6
20260504150204 64 290 0.0 1.0 0.00 0.00 0.00 67 1010.6
20260504141204 55 294 0.0 3.0 0.00 0.00 0.00 81 1010.4
20260504140203 54 263 2.0 3.0 0.00 0.00 0.00 81 1010.3
20260504130705 50 244 1.0 2.0 0.00 0.00 0.00 81 1010.0
20260504130204 50 244 1.0 2.0 0.00 0.00 0.00 82 1010.0
20260504120205 48 169 2.0 3.0 0.00 0.00 0.00 86 1010.1
20260504110705 49 232 1.0 3.0 0.00 0.00 0.00 81 1009.9
20260504110204 49 232 1.0 2.0 0.00 0.00 0.00 80 1009.9
20260504081703 60 180 3.0 6.0 0.00 0.00 0.00 61 1009.3
20260504081203 59 182 2.0 3.0 0.00 0.00 0.00 61 1009.3
20260504080705 59 187 2.0 3.0 0.00 0.00 0.00 63 1009.4
20260504080204 58 185 1.0 2.0 0.00 0.00 0.00 65 1009.4
20260504070204 53 215 2.0 3.0 0.00 0.00 0.00 79 1009.7
20260504060204 55 214 0.0 0.0 0.00 0.00 0.00 80 1010.0
20260504050705 59 214 0.0 0.0 0.00 0.00 0.00 70 1010.0
20260504050204 59 214 0.0 0.0 0.00 0.00 0.00 69 1010.0
20260504045704 60 214 0.0 0.0 0.00 0.00 0.00 69 1009.9
20260504045204 60 214 0.0 0.0 0.00 0.00 0.00 69 1010.0
20260504044705 60 291 0.0 0.0 0.00 0.00 0.00 68 1009.9
20260504044204 60 291 0.0 2.0 0.00 0.00 0.00 68 1009.9
20260504042204 61 223 0.0 0.0 0.00 0.00 0.00 67 1009.9
20260504041704 61 223 0.0 2.0 0.00 0.00 0.00 66 1009.9
20260504040704 61 209 1.0 3.0 0.00 0.00 0.00 68 1009.8
20260504040205 60 209 2.0 3.0 0.00 0.00 0.00 69 1009.8
20260504035205 63 194 2.0 3.0 0.00 0.00 0.00 65 1009.6
20260504034704 64 194 3.0 3.0 0.00 0.00 0.00 63 1009.6
20260504034204 65 193 2.0 3.0 0.00 0.00 0.00 61 1009.6
20260504033204 67 193 2.0 3.0 0.00 0.00 0.00 57 1009.6
20260504032205 69 211 1.0 2.0 0.00 0.00 0.00 54 1009.6
20260504031704 70 211 1.0 2.0 0.00 0.00 0.00 51 1009.5
20260504031205 71 211 0.0 1.0 0.00 0.00 0.00 51 1009.6
20260504030206 72 211 1.0 1.0 0.00 0.00 0.00 50 1009.6
20260504025704 72 211 1.0 2.0 0.00 0.00 0.00 49 1009.6
20260504025205 73 211 2.0 3.0 0.00 0.00 0.00 49 1009.7
20260504024703 74 211 2.0 3.0 0.00 0.00 0.00 47 1009.7
20260504024204 76 212 2.0 3.0 0.00 0.00 0.00 42 1009.7
20260504023706 77 191 2.0 3.0 0.00 0.00 0.00 39 1009.8
20260504023206 78 231 2.0 3.0 0.00 0.00 0.00 37 1009.8
20260504022704 78 272 1.0 3.0 0.00 0.00 0.00 35 1009.9
20260504022204 78 288 2.0 3.0 0.00 0.00 0.00 37 1010.0
20260504021203 78 286 2.0 3.0 0.00 0.00 0.00 36 1010.0
20260504020704 78 288 2.0 3.0 0.00 0.00 0.00 36 1010.0
20260504020203 78 289 3.0 3.0 0.00 0.00 0.00 34 1010.1
20260504014704 79 281 2.0 6.0 0.00 0.00 0.00 33 1010.2
20260504012704 79 207 3.0 5.0 0.00 0.00 0.00 35 1010.5
20260504012204 79 242 2.0 6.0 0.00 0.00 0.00 35 1010.4
20260504011704 79 211 3.0 7.0 0.00 0.00 0.00 35 1010.6
20260504011204 79 233 2.0 3.0 0.00 0.00 0.00 36 1010.6
20260504010704 79 298 2.0 3.0 0.00 0.00 0.00 35 1010.7
20260504010205 79 328 3.0 6.0 0.00 0.00 0.00 32 1010.7
20260504005206 79 273 3.0 7.0 0.00 0.00 0.00 34 1010.8
20260504004703 79 294 3.0 8.0 0.00 0.00 0.00 34 1011.0
20260504003706 79 310 2.0 8.0 0.00 0.00 0.00 34 1011.0
20260504003204 79 314 2.0 8.0 0.00 0.00 0.00 36 1011.0
20260504002704 79 290 4.0 9.0 0.00 0.00 0.00 32 1011.0
20260504002205 79 320 4.0 8.0 0.00 0.00 0.00 34 1011.1
20260504001705 79 329 3.0 9.0 0.00 0.00 0.00 35 1011.1
20260504000204 79 283 3.0 7.0 0.00 0.00 0.00 35 1011.2
20260503235204 79 293 2.0 5.0 0.00 0.00 0.00 37 1011.3
20260503234704 78 263 3.0 7.0 0.00 0.00 0.00 35 1011.3
20260503234204 78 326 4.0 6.0 0.00 0.00 0.00 35 1011.3
20260503233706 78 316 5.0 9.0 0.00 0.00 0.00 37 1011.4
20260503233203 78 340 5.0 10.0 0.00 0.00 0.00 34 1011.5
20260503231204 78 293 3.0 6.0 0.00 0.00 0.00 38 1011.7
20260503230705 78 275 5.0 8.0 0.00 0.00 0.00 40 1011.7
20260503230204 77 294 2.0 8.0 0.00 0.00 0.00 41 1011.8
20260503225704 77 281 3.0 8.0 0.00 0.00 0.00 44 1011.9
20260503225204 77 335 4.0 8.0 0.00 0.00 0.00 41 1012.0
20260503224704 77 305 2.0 7.0 0.00 0.00 0.00 41 1012.0
20260503224206 77 285 3.0 8.0 0.00 0.00 0.00 40 1012.1
20260503223203 77 245 3.0 7.0 0.00 0.00 0.00 43 1012.3
20260503222705 77 257 2.0 6.0 0.00 0.00 0.00 42 1012.4
20260503222206 77 20 1.0 3.0 0.00 0.00 0.00 44 1012.5
20260503221205 76 347 4.0 7.0 0.00 0.00 0.00 42 1012.6
20260503220205 76 265 3.0 6.0 0.00 0.00 0.00 45 1012.8
20260503215703 75 46 3.0 5.0 0.00 0.00 0.00 46 1012.8
20260503215205 75 46 3.0 6.0 0.00 0.00 0.00 44 1012.9
20260503214703 75 323 2.0 7.0 0.00 0.00 0.00 52 1013.0
20260503214205 74 346 4.0 9.0 0.00 0.00 0.00 46 1013.1
20260503213706 74 299 4.0 8.0 0.00 0.00 0.00 47 1013.1
20260503213204 74 347 4.0 9.0 0.00 0.00 0.00 48 1013.1
20260503212706 74 27 3.0 7.0 0.00 0.00 0.00 49 1013.2
20260503212204 74 11 5.0 8.0 0.00 0.00 0.00 46 1013.2
20260503211704 74 357 4.0 12.0 0.00 0.00 0.00 46 1013.2
20260503211204 74 315 5.0 9.0 0.00 0.00 0.00 45 1013.3
20260503210704 74 305 6.0 10.0 0.00 0.00 0.00 46 1013.3
20260503205704 74 350 6.0 9.0 0.00 0.00 0.00 48 1013.4
20260503205205 74 329 6.0 10.0 0.00 0.00 0.00 48 1013.3
20260503204705 74 309 8.0 12.0 0.00 0.00 0.00 46 1013.4
20260503203705 75 304 5.0 10.0 0.00 0.00 0.00 46 1013.4
20260503203204 75 332 5.0 9.0 0.00 0.00 0.00 45 1013.4